Weather History for Rockford, IL

Change the Weather History Date:

Saturday, June 8, 2013

  Actual Average Record
Temperature  
Mean Temperature 62 °F 68 °F  
Max Temperature 76 °F 79 °F 98 °F (1934)
Min Temperature 47 °F 56 °F 36 °F (1913)
Degree Days  
Heating Degree Days 3 1  
Month to date heating degree days 34 17  
Since 1 June heating degree days 34 17  
Since 1 July heating degree days 6578 6555  
Cooling Degree Days 0 4  
Month to date cooling degree days 5 29  
Year to date cooling degree days 97 84  
Since 1 June cooling degree days 5 29  
Growing Degree Days 10 (Base 50)    
Moisture  
Dew Point 46 °F    
Average Humidity 62    
Maximum Humidity 93    
Minimum Humidity 31    
Precipitation  
Precipitation T in 0.16 in 2.19 in (2008)
Month to date precipitation 0.70 1.31  
Year to date precipitation 20.14 13.78  
Snow  
Snow 0.00 in 0.00 in 0.00 in ()
Month to date snowfall 0.0 0.0  
Since 1 June snowfall 0.0 0.0  
Since 1 July snowfall 40.5 36.7  
Snow Depth 0.00 in    
Sea Level Pressure  
Sea Level Pressure 29.98 in    
Wind  
Wind Speed 3 mph (ESE)    
Max Wind Speed 12 mph    
Max Gust Speed 15 mph    
Visibility 10 miles    
Events      
T = Trace of Precipitation, MM = Missing Value Source: NWS Daily Summary

Daily Weather History Graph

Daily Weather History Graph

Search for Another Location

Airport:

Trip Planner

Search our weather history database for the weather conditions in past years. The results will help you decide how hot, cold, wet, or windy it might be!

Date:

Astronomy

Jun. 08, 2013 Rise Set
Actual Time 5:20 AM CDT 8:31 PM CDT
Civil Twilight 4:45 AM CDT 9:05 PM CDT
Nautical Twilight 4:01 AM CDT 9:49 PM CDT
Astronomical Twilight 3:08 AM CDT 10:42 PM CDT
Moon 5:28 AM CDT (6/8) 8:32 PM CDT (6/8)
Length of Visible Light 16h 19m
Length of Day
15h 10m
New Moon, 0% of the Moon is Illuminated
Jun 8
New Moon
Jun 16
First Quarter
Jun 23
Full
Jun 29
Last Quarter
Jul 8
New

Hourly Weather History & Observations

Time (CDT) Temp. Dew Point Humidity Pressure Visibility Wind Dir Wind Speed Gust Speed Precip Events Conditions
12:54 AM 53.1 °F 46.9 °F 80% 29.96 in 10.0 mi Calm Calm - N/A   Clear
1:54 AM 52.0 °F 46.9 °F 83% 29.96 in 10.0 mi Calm Calm - N/A   Clear
2:54 AM 50.0 °F 46.9 °F 89% 29.97 in 10.0 mi Calm Calm - N/A   Clear
3:54 AM 48.9 °F 46.0 °F 90% 29.96 in 10.0 mi Calm Calm - N/A   Clear
4:54 AM 48.0 °F 45.0 °F 89% 29.96 in 10.0 mi Calm Calm - N/A   Partly Cloudy
5:54 AM 48.9 °F 46.0 °F 90% 29.98 in 10.0 mi Calm Calm - N/A   Scattered Clouds
6:54 AM 51.1 °F 48.9 °F 92% 29.99 in 10.0 mi Calm Calm - N/A   Scattered Clouds
7:54 AM 57.9 °F 50.0 °F 75% 29.99 in 10.0 mi Calm Calm - N/A   Mostly Cloudy
8:54 AM 63.0 °F 48.9 °F 60% 30.00 in 10.0 mi Calm Calm - N/A   Scattered Clouds
9:54 AM 69.1 °F 43.0 °F 39% 29.97 in 10.0 mi SE 3.5 mph - N/A   Scattered Clouds
10:54 AM 71.1 °F 42.1 °F 35% 29.99 in 10.0 mi SSW 5.8 mph - N/A   Scattered Clouds
11:54 AM 72.0 °F 43.0 °F 35% 30.00 in 10.0 mi ESE 3.5 mph - N/A   Mostly Cloudy
12:54 PM 73.9 °F 45.0 °F 35% 29.98 in 10.0 mi Variable 3.5 mph - N/A   Mostly Cloudy
1:54 PM 73.0 °F 43.0 °F 34% 29.98 in 10.0 mi Variable 3.5 mph - N/A   Mostly Cloudy
2:54 PM 73.0 °F 43.0 °F 34% 29.97 in 10.0 mi Calm Calm - N/A   Mostly Cloudy
3:54 PM 73.0 °F 41.0 °F 31% 29.98 in 10.0 mi East 5.8 mph - N/A   Mostly Cloudy
4:54 PM 75.0 °F 44.1 °F 33% 29.97 in 10.0 mi ENE 5.8 mph - N/A   Mostly Cloudy
5:54 PM 73.9 °F 45.0 °F 35% 29.97 in 10.0 mi ENE 4.6 mph - N/A   Overcast
6:54 PM 72.0 °F 46.0 °F 40% 29.98 in 10.0 mi East 3.5 mph - N/A   Overcast
7:54 PM 69.1 °F 46.9 °F 45% 29.97 in 10.0 mi East 4.6 mph - N/A   Overcast
8:54 PM 68.0 °F 46.0 °F 45% 29.97 in 10.0 mi ESE 8.1 mph - N/A   Overcast
9:54 PM 66.9 °F 48.0 °F 51% 29.99 in 10.0 mi East 9.2 mph - N/A   Overcast
10:54 PM 64.9 °F 46.0 °F 50% 30.01 in 10.0 mi ESE 8.1 mph - N/A   Overcast
11:54 PM 63.0 °F 44.1 °F 50% 30.00 in 10.0 mi East 5.8 mph - N/A   Overcast